| time (UTC) | temp F | wind direction | speed MPH | gust MPH | rain 1hr in | rain 24hr in | rain mn in | humidity % | barometer mb |
| 20260508211628 | 74 | 218 | 11.0 | 18.0 | 0.00 | 0.00 | 0.00 | 24 | 1016.4 |
| 20260508210629 | 74 | 215 | 14.0 | 21.0 | 0.00 | 0.00 | 0.00 | 24 | 1016.3 |
| 20260508205625 | 74 | 212 | 11.0 | 17.0 | 0.00 | 0.00 | 0.00 | 25 | 1016.3 |
| 20260508204621 | 74 | 215 | 7.0 | 14.0 | 0.00 | 0.00 | 0.00 | 26 | 1016.3 |
| 20260508203622 | 73 | 228 | 6.0 | 10.0 | 0.00 | 0.00 | 0.00 | 28 | 1016.4 |
| 20260508202623 | 72 | 214 | 11.0 | 15.0 | 0.00 | 0.00 | 0.00 | 27 | 1016.3 |
| 20260508201640 | 72 | 223 | 10.0 | 15.0 | 0.00 | 0.00 | 0.00 | 28 | 1016.4 |
| 20260508200634 | 72 | 229 | 8.0 | 13.0 | 0.00 | 0.00 | 0.00 | 28 | 1016.6 |
| 20260508195631 | 71 | 221 | 10.0 | 15.0 | 0.00 | 0.00 | 0.00 | 26 | 1016.5 |
| 20260508194629 | 71 | 217 | 7.0 | 13.0 | 0.00 | 0.00 | 0.00 | 27 | 1016.5 |
| 20260508193650 | 71 | 229 | 8.0 | 11.0 | 0.00 | 0.00 | 0.00 | 28 | 1016.3 |
| 20260508192644 | 71 | 211 | 7.0 | 10.0 | 0.00 | 0.00 | 0.00 | 28 | 1016.3 |
| 20260508191624 | 71 | 208 | 7.0 | 10.0 | 0.00 | 0.00 | 0.00 | 28 | 1016.5 |
| 20260508190622 | 72 | 266 | 7.0 | 11.0 | 0.00 | 0.00 | 0.00 | 28 | 1016.5 |
| 20260508185619 | 71 | 207 | 7.0 | 14.0 | 0.00 | 0.00 | 0.00 | 28 | 1016.6 |
| 20260508184655 | 71 | 196 | 10.0 | 11.0 | 0.00 | 0.00 | 0.00 | 29 | 1016.8 |
| 20260508183634 | 70 | 215 | 9.0 | 12.0 | 0.00 | 0.00 | 0.00 | 29 | 1016.7 |
| 20260508182635 | 69 | 203 | 7.0 | 9.0 | 0.00 | 0.00 | 0.00 | 31 | 1016.9 |
| 20260508181627 | 69 | 208 | 10.0 | 14.0 | 0.00 | 0.00 | 0.00 | 31 | 1016.9 |
| 20260508180627 | 68 | 225 | 5.0 | 8.0 | 0.00 | 0.00 | 0.00 | 34 | 1016.9 |
| 20260508175630 | 67 | 210 | 8.0 | 15.0 | 0.00 | 0.00 | 0.00 | 39 | 1016.9 |
| 20260508174643 | 67 | 217 | 9.0 | 12.0 | 0.00 | 0.00 | 0.00 | 37 | 1016.9 |
| 20260508173622 | 65 | 202 | 10.0 | 12.0 | 0.00 | 0.00 | 0.00 | 43 | 1016.9 |
| 20260508172623 | 64 | 202 | 7.0 | 11.0 | 0.00 | 0.00 | 0.00 | 46 | 1016.9 |
| 20260508171658 | 63 | 200 | 6.0 | 7.0 | 0.00 | 0.00 | 0.00 | 49 | 1016.9 |
| 20260508170633 | 64 | 200 | 7.0 | 9.0 | 0.00 | 0.00 | 0.00 | 48 | 1016.8 |
| 20260508165632 | 64 | 221 | 6.0 | 8.0 | 0.00 | 0.00 | 0.00 | 45 | 1016.7 |
| 20260508164632 | 64 | 207 | 6.0 | 11.0 | 0.00 | 0.00 | 0.00 | 46 | 1016.7 |
| 20260508163629 | 63 | 219 | 8.0 | 10.0 | 0.00 | 0.00 | 0.00 | 42 | 1016.7 |
| 20260508162628 | 63 | 198 | 6.0 | 12.0 | 0.00 | 0.00 | 0.00 | 45 | 1016.6 |
| 20260508161621 | 62 | 216 | 13.0 | 20.0 | 0.00 | 0.00 | 0.00 | 49 | 1016.7 |
| 20260508160618 | 61 | 208 | 7.0 | 15.0 | 0.00 | 0.00 | 0.00 | 50 | 1016.5 |
| 20260508155643 | 60 | 208 | 12.0 | 15.0 | 0.00 | 0.00 | 0.00 | 49 | 1016.6 |
| 20260508154634 | 60 | 210 | 7.0 | 16.0 | 0.00 | 0.00 | 0.00 | 49 | 1016.5 |
| 20260508153654 | 59 | 218 | 10.0 | 13.0 | 0.00 | 0.00 | 0.00 | 50 | 1016.5 |
| 20260508152631 | 59 | 218 | 9.0 | 14.0 | 0.00 | 0.00 | 0.00 | 50 | 1016.3 |
| 20260508151629 | 59 | 206 | 7.0 | 12.0 | 0.00 | 0.00 | 0.00 | 50 | 1016.5 |
| 20260508150627 | 58 | 214 | 10.0 | 15.0 | 0.00 | 0.00 | 0.00 | 51 | 1016.1 |
| 20260508145626 | 58 | 219 | 9.0 | 11.0 | 0.00 | 0.00 | 0.00 | 51 | 1016.0 |
| 20260508144623 | 57 | 213 | 8.0 | 14.0 | 0.00 | 0.00 | 0.00 | 52 | 1016.2 |
| 20260508143622 | 57 | 211 | 10.0 | 13.0 | 0.00 | 0.00 | 0.00 | 51 | 1016.1 |
| 20260508142637 | 57 | 219 | 7.0 | 11.0 | 0.00 | 0.00 | 0.00 | 51 | 1016.1 |
| 20260508141640 | 58 | 195 | 7.0 | 11.0 | 0.00 | 0.00 | 0.00 | 48 | 1016.1 |
| 20260508140635 | 56 | 203 | 11.0 | 19.0 | 0.00 | 0.00 | 0.00 | 52 | 1015.8 |
| 20260508135636 | 56 | 205 | 14.0 | 18.0 | 0.00 | 0.00 | 0.00 | 51 | 1015.6 |
| 20260508134632 | 57 | 204 | 6.0 | 11.0 | 0.00 | 0.00 | 0.00 | 51 | 1015.5 |
| 20260508133628 | 56 | 206 | 9.0 | 14.0 | 0.00 | 0.00 | 0.00 | 51 | 1015.6 |
| 20260508132625 | 56 | 220 | 12.0 | 15.0 | 0.00 | 0.00 | 0.00 | 50 | 1015.2 |
| 20260508131643 | 56 | 226 | 9.0 | 15.0 | 0.00 | 0.00 | 0.00 | 49 | 1015.3 |
| 20260508130619 | 56 | 208 | 11.0 | 19.0 | 0.00 | 0.00 | 0.00 | 47 | 1015.1 |
| 20260508125637 | 56 | 214 | 13.0 | 19.0 | 0.00 | 0.00 | 0.00 | 48 | 1015.2 |
| 20260508124637 | 55 | 212 | 8.0 | 13.0 | 0.00 | 0.00 | 0.00 | 48 | 1015.2 |
| 20260508123634 | 56 | 220 | 13.0 | 17.0 | 0.00 | 0.00 | 0.00 | 48 | 1014.9 |
| 20260508122634 | 56 | 212 | 14.0 | 18.0 | 0.00 | 0.00 | 0.00 | 48 | 1015.0 |
| 20260508121630 | 56 | 210 | 13.0 | 19.0 | 0.00 | 0.00 | 0.00 | 48 | 1015.0 |
| 20260508120625 | 56 | 204 | 8.0 | 14.0 | 0.00 | 0.00 | 0.00 | 47 | 1015.0 |
| 20260508115644 | 56 | 198 | 11.0 | 14.0 | 0.00 | 0.00 | 0.00 | 46 | 1015.1 |
| 20260508114626 | 57 | 203 | 15.0 | 19.0 | 0.00 | 0.00 | 0.00 | 44 | 1015.1 |
| 20260508113619 | 56 | 215 | 9.0 | 15.0 | 0.00 | 0.00 | 0.00 | 45 | 1015.1 |
| 20260508112656 | 56 | 223 | 8.0 | 12.0 | 0.00 | 0.00 | 0.00 | 46 | 1014.9 |
| 20260508111644 | 56 | 216 | 10.0 | 14.0 | 0.00 | 0.00 | 0.00 | 45 | 1015.0 |
| 20260508110636 | 56 | 213 | 8.0 | 12.0 | 0.00 | 0.00 | 0.00 | 45 | 1014.7 |
| 20260508105628 | 56 | 220 | 16.0 | 19.0 | 0.00 | 0.00 | 0.00 | 45 | 1014.8 |
| 20260508104626 | 56 | 210 | 13.0 | 17.0 | 0.00 | 0.00 | 0.00 | 44 | 1014.7 |
| 20260508103628 | 56 | 222 | 10.0 | 19.0 | 0.00 | 0.00 | 0.00 | 43 | 1014.7 |
| 20260508102621 | 57 | 212 | 12.0 | 20.0 | 0.00 | 0.00 | 0.00 | 42 | 1014.8 |
| 20260508101622 | 56 | 214 | 12.0 | 16.0 | 0.00 | 0.00 | 0.00 | 43 | 1014.6 |
| 20260508100637 | 57 | 220 | 10.0 | 14.0 | 0.00 | 0.00 | 0.00 | 40 | 1014.6 |
| 20260508095634 | 57 | 215 | 9.0 | 12.0 | 0.00 | 0.00 | 0.00 | 41 | 1014.5 |
| 20260508094656 | 57 | 208 | 10.0 | 13.0 | 0.00 | 0.00 | 0.00 | 40 | 1014.7 |
| 20260508093630 | 57 | 216 | 10.0 | 13.0 | 0.00 | 0.00 | 0.00 | 39 | 1014.7 |
| 20260508092632 | 57 | 217 | 12.0 | 15.0 | 0.00 | 0.00 | 0.00 | 38 | 1014.7 |
| 20260508091625 | 58 | 221 | 12.0 | 16.0 | 0.00 | 0.00 | 0.00 | 36 | 1014.6 |
| 20260508090624 | 58 | 212 | 10.0 | 15.0 | 0.00 | 0.00 | 0.00 | 34 | 1014.8 |
| 20260508085620 | 58 | 212 | 8.0 | 11.0 | 0.00 | 0.00 | 0.00 | 33 | 1014.7 |
| 20260508084622 | 59 | 198 | 6.0 | 12.0 | 0.00 | 0.00 | 0.00 | 31 | 1014.9 |
| 20260508083635 | 59 | 213 | 7.0 | 10.0 | 0.00 | 0.00 | 0.00 | 30 | 1014.7 |
| 20260508082635 | 61 | 217 | 13.0 | 19.0 | 0.00 | 0.00 | 0.00 | 27 | 1014.7 |
| 20260508081634 | 60 | 188 | 8.0 | 12.0 | 0.00 | 0.00 | 0.00 | 27 | 1014.7 |
| 20260508080631 | 60 | 194 | 7.0 | 12.0 | 0.00 | 0.00 | 0.00 | 25 | 1014.5 |
| 20260508075627 | 61 | 206 | 7.0 | 11.0 | 0.00 | 0.00 | 0.00 | 25 | 1014.9 |
| 20260508074624 | 61 | 206 | 6.0 | 11.0 | 0.00 | 0.00 | 0.00 | 26 | 1014.8 |
| 20260508073624 | 62 | 211 | 6.0 | 11.0 | 0.00 | 0.00 | 0.00 | 27 | 1014.8 |
| 20260508072620 | 63 | 222 | 2.0 | 4.0 | 0.00 | 0.00 | 0.00 | 26 | 1014.7 |
| 20260508071617 | 63 | 182 | 3.0 | 5.0 | 0.00 | 0.00 | 0.00 | 24 | 1014.9 |
| 20260508070639 | 64 | 202 | 5.0 | 7.0 | 0.00 | 0.00 | 0.00 | 25 | 1014.5 |
| 20260508065633 | 64 | 259 | 5.0 | 9.0 | 0.00 | 0.00 | 0.00 | 25 | 1014.7 |
| 20260508064632 | 64 | 221 | 5.0 | 8.0 | 0.00 | 0.00 | 0.00 | 26 | 1014.1 |
| 20260508063632 | 64 | 201 | 8.0 | 12.0 | 0.00 | 0.00 | 0.00 | 25 | 1014.0 |
| 20260508062626 | 64 | 214 | 6.0 | 14.0 | 0.00 | 0.00 | 0.00 | 26 | 1014.0 |
| 20260508061624 | 65 | 212 | 9.0 | 12.0 | 0.00 | 0.00 | 0.00 | 26 | 1013.8 |
| 20260508060630 | 65 | 217 | 12.0 | 17.0 | 0.00 | 0.00 | 0.00 | 26 | 1013.8 |
| 20260508055622 | 65 | 206 | 7.0 | 12.0 | 0.00 | 0.00 | 0.00 | 28 | 1014.0 |
| 20260508054622 | 66 | 214 | 9.0 | 13.0 | 0.00 | 0.00 | 0.00 | 28 | 1013.9 |
| 20260508053635 | 66 | 212 | 9.0 | 13.0 | 0.00 | 0.00 | 0.00 | 28 | 1014.0 |
| 20260508052656 | 66 | 217 | 14.0 | 19.0 | 0.00 | 0.00 | 0.00 | 27 | 1014.1 |
| 20260508051630 | 66 | 216 | 9.0 | 19.0 | 0.00 | 0.00 | 0.00 | 26 | 1013.9 |
| 20260508050631 | 66 | 209 | 11.0 | 15.0 | 0.00 | 0.00 | 0.00 | 27 | 1014.1 |
| 20260508045649 | 67 | 203 | 7.0 | 10.0 | 0.00 | 0.00 | 0.00 | 28 | 1013.9 |
| 20260508044623 | 67 | 211 | 6.0 | 12.0 | 0.00 | 0.00 | 0.00 | 29 | 1014.1 |
| 20260508043624 | 68 | 199 | 7.0 | 10.0 | 0.00 | 0.00 | 0.00 | 30 | 1014.1 |
| 20260508042626 | 69 | 218 | 3.0 | 5.0 | 0.00 | 0.00 | 0.00 | 33 | 1014.1 |
| 20260508041639 | 70 | 232 | 2.0 | 3.0 | 0.00 | 0.00 | 0.00 | 32 | 1014.0 |
| 20260508040637 | 70 | 189 | 4.0 | 6.0 | 0.00 | 0.00 | 0.00 | 30 | 1014.0 |
| 20260508035633 | 71 | 86 | 1.0 | 2.0 | 0.00 | 0.00 | 0.00 | 30 | 1014.1 |
| 20260508034635 | 71 | 185 | 1.0 | 3.0 | 0.00 | 0.00 | 0.00 | 28 | 1013.9 |
| 20260508033627 | 70 | 188 | 2.0 | 3.0 | 0.00 | 0.00 | 0.00 | 34 | 1013.9 |
| 20260508032629 | 71 | 192 | 1.0 | 2.0 | 0.00 | 0.00 | 0.00 | 34 | 1013.9 |
| 20260508031626 | 71 | 185 | 2.0 | 4.0 | 0.00 | 0.00 | 0.00 | 33 | 1014.0 |
| 20260508030620 | 72 | 177 | 1.0 | 2.0 | 0.00 | 0.00 | 0.00 | 33 | 1013.8 |
| 20260508025621 | 72 | 184 | 2.0 | 2.0 | 0.00 | 0.00 | 0.00 | 33 | 1013.9 |
| 20260508024637 | 73 | 202 | 2.0 | 3.0 | 0.00 | 0.00 | 0.00 | 32 | 1013.8 |
| 20260508023640 | 73 | 212 | 3.0 | 4.0 | 0.00 | 0.00 | 0.00 | 31 | 1014.0 |
| 20260508022630 | 73 | 219 | 2.0 | 4.0 | 0.00 | 0.00 | 0.00 | 32 | 1014.0 |
| 20260508021634 | 74 | 210 | 2.0 | 3.0 | 0.00 | 0.00 | 0.00 | 31 | 1014.0 |
| 20260508020630 | 74 | 197 | 3.0 | 4.0 | 0.00 | 0.00 | 0.00 | 30 | 1014.0 |
| 20260508015630 | 75 | 201 | 3.0 | 4.0 | 0.00 | 0.00 | 0.00 | 29 | 1014.2 |
| 20260508014622 | 75 | 188 | 5.0 | 6.0 | 0.00 | 0.00 | 0.00 | 26 | 1014.0 |
| 20260508013620 | 76 | 184 | 5.0 | 6.0 | 0.00 | 0.00 | 0.00 | 26 | 1013.9 |
| 20260508012621 | 77 | 202 | 4.0 | 5.0 | 0.00 | 0.00 | 0.00 | 24 | 1014.0 |
| 20260508011655 | 77 | 278 | 2.0 | 3.0 | 0.00 | 0.00 | 0.00 | 24 | 1014.2 |
| 20260508010638 | 76 | 146 | 2.0 | 2.0 | 0.00 | 0.00 | 0.00 | 24 | 1014.1 |
| 20260508005633 | 77 | 188 | 3.0 | 6.0 | 0.00 | 0.00 | 0.00 | 23 | 1014.0 |
| 20260508004636 | 77 | 57 | 2.0 | 3.0 | 0.00 | 0.00 | 0.00 | 23 | 1014.1 |
| 20260508003634 | 77 | 219 | 1.0 | 2.0 | 0.00 | 0.00 | 0.00 | 23 | 1014.2 |
| 20260508002651 | 77 | 242 | 3.0 | 4.0 | 0.00 | 0.00 | 0.00 | 24 | 1014.4 |
| 20260508001628 | 76 | 200 | 3.0 | 4.0 | 0.00 | 0.00 | 0.00 | 24 | 1014.4 |
| 20260508000624 | 76 | 188 | 5.0 | 6.0 | 0.00 | 0.00 | 0.00 | 25 | 1014.4 |
| 20260507235619 | 76 | 261 | 3.0 | 5.0 | 0.00 | 0.00 | 0.00 | 24 | 1014.5 |
| 20260507234635 | 76 | 353 | 1.0 | 3.0 | 0.00 | 0.00 | 0.00 | 24 | 1014.6 |
| 20260507233639 | 75 | 193 | 1.0 | 4.0 | 0.00 | 0.00 | 0.00 | 24 | 1014.8 |
| 20260507232634 | 75 | 83 | 1.0 | 2.0 | 0.00 | 0.00 | 0.00 | 25 | 1014.7 |
| 20260507231632 | 76 | 92 | 3.0 | 5.0 | 0.00 | 0.00 | 0.00 | 25 | 1014.8 |
| 20260507230629 | 76 | 199 | 3.0 | 5.0 | 0.00 | 0.00 | 0.00 | 25 | 1015.0 |
| 20260507225629 | 76 | 262 | 2.0 | 5.0 | 0.00 | 0.00 | 0.00 | 24 | 1015.0 |
| 20260507224621 | 77 | 192 | 3.0 | 4.0 | 0.00 | 0.00 | 0.00 | 25 | 1015.2 |
| 20260507223701 | 76 | 75 | 3.0 | 6.0 | 0.00 | 0.00 | 0.00 | 26 | 1015.3 |
| 20260507222618 | 75 | 210 | 2.0 | 4.0 | 0.00 | 0.00 | 0.00 | 25 | 1015.5 |
| 20260507221719 | 75 | 195 | 3.0 | 4.0 | 0.00 | 0.00 | 0.00 | 26 | 1015.7 |
| 20260507220637 | 75 | 171 | 4.0 | 6.0 | 0.00 | 0.00 | 0.00 | 25 | 1015.8 |
| 20260507215630 | 75 | 172 | 6.0 | 7.0 | 0.00 | 0.00 | 0.00 | 25 | 1015.8 |
| 20260507214629 | 74 | 230 | 3.0 | 5.0 | 0.00 | 0.00 | 0.00 | 27 | 1016.0 |
| 20260507213628 | 74 | 183 | 8.0 | 11.0 | 0.00 | 0.00 | 0.00 | 27 | 1016.2 |
| 20260507212646 | 75 | 195 | 5.0 | 8.0 | 0.00 | 0.00 | 0.00 | 28 | 1016.2 |